TimeMDT,TemperatureF,Dew PointF,Humidity,Sea Level PressureIn,VisibilityMPH,Wind Direction,Wind SpeedMPH,Gust SpeedMPH,PrecipitationIn,Events,Conditions,WindDirDegrees,DateUTC
12:53 AM,46.0,39.0,76,29.87,10.0,SSE,10.4,-,N/A,,Clear,150,2013-05-07 06:53:00
1:53 AM,46.0,39.9,79,29.85,10.0,SSE,11.5,-,N/A,,Clear,150,2013-05-07 07:53:00
2:53 AM,44.1,39.9,85,29.84,10.0,SE,6.9,-,N/A,,Partly Cloudy,140,2013-05-07 08:53:00
3:53 AM,41.0,39.0,93,29.84,10.0,ESE,8.1,-,N/A,,Mostly Cloudy,120,2013-05-07 09:53:00
4:53 AM,37.9,37.0,97,29.86,9.0,East,10.4,-,N/A,,Clear,100,2013-05-07 10:53:00
5:53 AM,39.0,37.9,96,29.86,7.0,SE,6.9,-,N/A,,Partly Cloudy,130,2013-05-07 11:53:00
6:53 AM,45.0,43.0,93,29.86,10.0,SE,5.8,-,N/A,,Overcast,130,2013-05-07 12:53:00
7:53 AM,50.0,45.0,83,29.86,10.0,SE,6.9,-,N/A,,Mostly Cloudy,130,2013-05-07 13:53:00
8:53 AM,54.0,46.0,75,29.85,10.0,ESE,5.8,-,N/A,,Clear,120,2013-05-07 14:53:00
9:53 AM,59.0,45.0,60,29.85,10.0,ESE,6.9,-,N/A,,Partly Cloudy,110,2013-05-07 15:53:00
10:53 AM,62.1,44.1,52,29.85,10.0,Calm,Calm,-,N/A,,Clear,0,2013-05-07 16:53:00
11:53 AM,64.0,41.0,43,29.84,10.0,Calm,Calm,-,N/A,,Clear,0,2013-05-07 17:53:00
12:53 PM,66.0,42.1,42,29.82,10.0,NNE,6.9,-,N/A,,Mostly Cloudy,20,2013-05-07 18:53:00
1:53 PM,66.0,41.0,40,29.82,10.0,Variable,3.5,-,N/A,,Mostly Cloudy,0,2013-05-07 19:53:00
2:53 PM,68.0,41.0,37,29.81,10.0,NNW,5.8,-,0.00,,Mostly Cloudy,330,2013-05-07 20:53:00
3:20 PM,69.8,39.2,33,29.89,10.0,North,10.4,-,0.00,Thunderstorm,Thunderstorm,10,2013-05-07 21:20:00
4:05 PM,64.4,41.0,42,29.89,10.0,SE,15.0,-,N/A,,Mostly Cloudy,130,2013-05-07 22:05:00
4:24 PM,64.4,41.0,42,29.89,10.0,ESE,12.7,-,N/A,Thunderstorm,Mostly Cloudy,110,2013-05-07 22:24:00
4:47 PM,60.8,46.4,59,29.90,10.0,ESE,11.5,-,0.04,Rain-Thunderstorm,Light Thunderstorms and Rain,120,2013-05-07 22:47:00
4:53 PM,60.1,46.9,62,29.85,10.0,SE,11.5,-,0.04,Rain-Thunderstorm,Light Thunderstorms and Rain,140,2013-05-07 22:53:00
5:53 PM,57.0,48.0,72,29.86,4.0,SSE,5.8,-,0.14,Rain-Thunderstorm,Thunderstorms and Rain,160,2013-05-07 23:53:00
6:04 PM,57.2,50.0,77,29.90,10.0,SSE,5.8,-,0.00,Rain,Light Rain,150,2013-05-08 00:04:00
6:53 PM,60.1,48.0,64,29.83,10.0,ENE,5.8,-,0.00,,Clear,70,2013-05-08 00:53:00
7:53 PM,57.9,48.0,70,29.84,10.0,SSE,3.5,-,N/A,,Clear,150,2013-05-08 01:53:00
8:53 PM,55.0,46.9,74,29.85,10.0,Calm,Calm,-,N/A,,Clear,0,2013-05-08 02:53:00
9:53 PM,53.1,48.0,83,29.88,10.0,Calm,Calm,-,N/A,,Scattered Clouds,0,2013-05-08 03:53:00
10:53 PM,51.1,46.0,83,29.89,10.0,West,13.8,-,0.00,Rain,Light Rain,280,2013-05-08 04:53:00
11:53 PM,53.1,42.1,66,29.85,10.0,WSW,9.2,-,0.00,,Clear,240,2013-05-08 05:53:00